Location: Unspecified
(33.6682°S, 0.0000°E)
Time: 06:18:07
(UTC+00:00)

Vanguard 1 - Pass Details

Date: 03 July 2019
Orbit: 653 x 3830 km, 34.3° (Epoch: 17 July)

Event Time Altitude Azimuth Distance (km) Brightness Sun altitude
Rises 19:19:30 0° 263° (W) 4,885 14.8 -27.6°
Reaches altitude 10° 19:22:44 10° 273° (W) 4,280 14.3 -28.2°
Maximum altitude 19:33:00 31° 329° (NNW) 3,923 13.3 -30.4°
Drops below altitude 10° 19:48:43 10° 21° (NNE) 6,530 14.1 -33.6°
Sets 19:55:28 0° 30° (NNE) 7,827 14.5 -35.0°
